Lapse_Rate
9.6 9.6 9.6 9.5 9.6 9.5 9.6 9.6 9.6 9.3 9.3 8.7 8.3 8.4 8.2 9.2 9.3 9.1 8.9 9.2 9.4 9.5
9.5 9.4 9.5 9.5 9.6 9.6 9.6 9.7 9.2 8.9 8.6 8.6 8.5 8.3 8.4 8.6 9.4 8.7 8.4 8.3 8.3 9.1
9.5 9.6 9.6 9.5 9.4 9.5 9.6 9.1 9.0 9.2 9.6 9.7 9.4 8.6 8.3 9.3 9.4 8.3 9.4 9.0 8.6 9.0
9.4 9.5 9.3 9.1 9.4 9.5 9.6 9.7 9.6 9.6 9.4 9.5 9.6 9.6 9.3 9.2 9.5 9.3 9.4 9.4 9.0 9.2
9.4 9.4 9.2 9.4 9.6 9.5 8.4 8.9 9.2 9.6 9.6 9.6 9.6 9.6 9.4 9.3 9.5 9.3 9.3 9.3 8.4 8.6
9.3 9.3 9.4 9.5 9.5 9.0 9.4 9.5 9.5 9.4 9.5 9.6 9.6 9.6 9.5 9.4 9.2 7.9 8.3 7.5 7.5 8.2
9.3 9.4 9.4 9.5 9.3 9.5 9.4 9.5 9.6 9.6 9.6 9.6 9.6 9.6 9.5 9.4 9.1 8.1 6.9 6.2 6.6 8.0
9.4 9.5 9.3 8.4 8.2 8.1 7.5 8.9 9.4 9.5 9.6 9.6 9.5 9.6 9.3 9.2 7.7 7.2 6.5 6.0 7.0 6.9
9.3 9.3 8.2 7.3 7.5 7.2 6.8 8.0 8.8 9.1 9.3 9.4 9.1 2.9 3.6 6.6 7.9 7.6 6.4 6.0 5.6 4.1
8.7 8.7 7.8 7.1 6.3 5.7 5.6 6.5 4.6 3.5 3.3 4.0 5.1 2.2 2.9 3.7 6.8 6.1 5.5 5.6 6.3 6.9
6.1 5.7 4.8 2.4 1.1 1.6 1.8 0.8 1.1 1.8 2.3 2.8 2.9 2.0 2.0 2.7 4.5 5.1 5.0 5.5 5.9 6.6
0.2 -0.5 -0.6 -0.8 -0.3 -0.1 0.7 0.9 2.0 2.7 2.6 3.6 2.7 2.1 2.1 3.7 4.1 3.7 3.9 4.2 4.1 5.2
-1.1 -0.7 -0.4 0.2 0.5 1.2 1.8 3.1 3.3 2.8 3.3 3.3 2.7 2.6 3.1 4.8 4.8 4.5 4.7 4.6 4.1 3.1
-0.3 0.1 0.3 0.6 1.3 1.3 3.2 3.2 3.4 4.5 3.8 3.6 3.5 3.6 4.0 4.2 5.6 6.0 6.1 5.7 5.3 4.0
Wind_Speed
7 6 5 7 4 6 4 5 7 6 5 4 4 4 4 4 3 2 3 5 5 7
7 6 6 4 5 4 4 4 8 8 8 7 7 6 5 4 4 3 3 4 4 5
8 7 6 6 7 7 7 7 8 7 6 6 6 6 6 5 5 5 4 3 4 5
7 7 7 8 7 6 5 5 5 6 7 8 8 7 7 7 6 6 5 3 4 4
8 8 7 5 5 4 6 7 7 7 8 8 8 8 9 8 6 7 7 5 4 4
9 8 7 6 6 6 6 6 6 7 8 8 8 8 9 9 7 7 5 4 4 5
8 8 7 6 6 5 5 6 7 7 8 7 8 8 8 8 8 5 4 3 3 3
5 5 5 5 4 4 4 6 7 8 8 7 7 7 8 6 5 7 5 4 3 5
6 5 4 3 3 2 4 6 8 8 7 6 3 9 7 3 5 5 5 4 4 6
4 4 3 3 2 1 3 5 5 6 7 8 7 5 3 5 3 3 3 3 4 4
2 2 2 5 2 1 1 3 1 1 3 3 5 6 7 6 4 2 4 5 6 4
3 4 3 3 2 2 2 2 1 1 3 4 6 8 7 5 4 5 5 6 7 4
3 3 3 3 3 1 2 1 3 3 4 5 6 7 4 2 4 5 3 4 4 8
4 4 4 4 2 2 2 4 4 4 4 3 6 6 4 4 1 3 3 3 3 5
Wind_Direction
180 185 201 199 175 204 197 174 141 200 195 186 185 200 204 224 233 265 254 269 275 283
192 211 203 178 196 199 194 175 186 198 198 195 198 201 204 239 230 220 239 267 271 272
203 204 204 202 206 204 209 204 197 209 217 218 213 209 214 224 218 233 228 243 248 264
215 201 205 213 213 214 215 220 227 224 226 230 229 221 221 233 236 221 240 226 255 256
207 205 206 218 214 203 212 213 229 225 232 239 231 234 230 227 220 229 229 221 231 240
212 204 197 191 201 207 232 233 232 244 240 238 242 240 236 237 222 227 229 208 230 238
207 200 187 189 199 210 238 252 246 243 248 245 254 242 233 231 220 207 208 196 213 244
182 195 186 193 203 219 247 260 260 253 253 252 246 252 235 222 213 202 178 187 196 60
186 188 194 204 225 258 268 272 287 273 268 253 264 40 28 279 194 172 191 178 104 93
188 216 199 214 233 326 287 314 5 9 19 39 56 47 68 27 120 168 179 184 167 183
195 180 136 67 85 46 59 50 319 20 65 93 81 103 88 48 88 103 51 49 55 86
114 123 104 143 136 112 96 99 84 5 107 89 110 117 116 98 94 83 81 67 49 54
86 96 123 134 130 143 90 116 133 91 70 99 102 108 111 99 119 126 115 96 76 49
91 105 137 142 134 109 131 137 109 88 79 104 116 119 116 36 94 140 151 138 131 95